sat.trackr.live / text

‹ back to catalog

RISAT-2B

NORAD 44233 · 2019-028A

PAYLOAD ACTIVE UNKNOWN

§ Identity

Operator
Country
IND
Launch date
2019-05-22
Launch site
SRILR
Launch vehicle
Mass (kg)
RCS (m²)

External: N2YO · Heavens-Above · Gunter

§ Orbital elements

Epoch: 2026-09-13T05:03:21.430944Z

Period
95.94 min
Inclination
36.9966°
Eccentricity
0.0006881
Mean motion
15.00869955 rev/d
Perigee alt
559.4 km
Apogee alt
569.0 km
Semi-major
6,942.3 km
B*
1.9009e-4
RAAN
192.3170°
Arg perigee
3.3643°
Mean anomaly
356.7145°
Rev number
40,106

§ Raw data

RISAT-2B1 44233U 19028A   26256.21066471  .00002385  00000+0  19009-3 0  99932 44233  36.9966 192.3170 0006881   3.3643 356.7145 15.00869955401062

JSON: /api/v1/satellites/44233 · /tle

For live sub-satellite position, see the globe view (requires WebGL).

§ Visibility from observer

Set your observer location to see the next 7 days of passes ≥ 10°. The values pass through the URL so the page stays shareable.

No JS? Fill the form by hand. The geolocation button needs JavaScript.